CZ-3C DEB (VEB), 38095

Orbit data source: Space-Track

CZ-3C DEB (VEB), 38095 is space debris in HEO originally from a launch on Fri, 24 Feb 2012 UTC launched from the Xichang Space Center, China (XSC). Debris objects in space refer to the collection of defunct objects orbiting the Earth. Examples of debris include non-operational satellites, rocket bodies, and fragments generated from explosions, collisions, or faulty payload assembly.

Loading next visibility...
Identifier
38095, 2012-008C
Orbit
HEO
Country
Flag of CNCN / PRC
Related business
Manufacturer
CALT
Mission
Spacecraft
Bus & Motor
Unknown
Mass
Unknown
Launch date (UTC)
2012-02-24 (14 years ago)
Launch vehicle
Unknown
Launch site
Xichang Space Center, China (XSC)
Object type
Payload
Rocket body
Debris
Shape & HBR
Cyl, 1.5 m
Radar Cross Section
5.890 m², Large (>1 m²)

Expand to show TLE details & history
Last TLE update: 15 hours ago

TLE from 15 hours ago
0 CZ-3C DEB (VEB)
1 38095U 12008C   26046.01342553  .00014479  00000-0  17949-2 0  9994
2 38095  20.8756  80.3458 6581763 301.5238  10.4508  3.22439853135940
Epoch: 2026-02-15T00:19Z
TLE epoch observation values (Epoch: 2026-02-15T00:19:19.965Z)
Latitude
-0.00003°
Longitude
-69.45595°
Altitude
1,799.943 km
Speed
8.768 km/s
True Right ascension
05h 21m 37s
True Declination
0° 00' 00"
Sunlit
Object was in daylight at epoch
Visualization orbit readout
Latitude
Unknown
Longitude
Unknown
Altitude
Unknown
Speed
Unknown
Apparent Right ascension
Unknown
Apparent Declination
Unknown
Sunlit
N/A
Visualization observer readout
Local Sidereal Time
17:51:00
Azimuth
Unknown
Elevation
Unknown
Doppler factor
Unknown
Orbital elements
Apogee altitude
25,721.285 km
Perigee altitude
238.978 km
Semi-major axis
19,358.268 km
Eccentricity
0.65818
Inclination
20.8756°
RAAN
80.3458°
Arg. of periapsis
301.5238°
True anomaly
58.20774°
Mean anomaly
10.4508°
Eccentric anomaly
28.36896°
Mean motion
0.80583 °/min
Orbital period
446.74 mins
BSTAR
0.0017949
Loading maneuver chart data...
Computing Atmospheric mass density...
Loading historical data...
Loading historical data...
Loading historical data...
Loading historical data...
Loading historical data...
Loading historical data...
Loading historical data...

Documentation

Showing up to 5 results
|